Year,Month,Day,Hour,Minute,Value (Times are PST for temperature in C)
2007,06,03,00,00,17.50
2007,06,03,00,01,17.50
2007,06,03,00,02,17.50
2007,06,03,00,03,17.40
2007,06,03,00,04,17.40
2007,06,03,00,05,17.40
2007,06,03,00,06,17.40
2007,06,03,00,07,17.40
2007,06,03,00,08,17.40
2007,06,03,00,09,17.40
2007,06,03,00,10,17.40
2007,06,03,00,11,17.40
2007,06,03,00,12,17.40
2007,06,03,00,13,17.40
2007,06,03,00,14,17.40
2007,06,03,00,15,17.40
2007,06,03,00,16,17.40
2007,06,03,00,17,17.40
2007,06,03,00,18,17.40
2007,06,03,00,19,17.40
2007,06,03,00,20,17.30
2007,06,03,00,21,17.30
2007,06,03,00,22,17.30
2007,06,03,00,23,17.30
2007,06,03,00,24,17.30
2007,06,03,00,25,17.30
2007,06,03,00,26,17.30
2007,06,03,00,27,17.30
2007,06,03,00,28,17.30
2007,06,03,00,29,17.30
2007,06,03,00,30,17.30
2007,06,03,00,31,17.30
2007,06,03,00,32,17.30
2007,06,03,00,33,17.30
2007,06,03,00,34,17.30
2007,06,03,00,35,17.30
2007,06,03,00,36,17.30
2007,06,03,00,37,17.30
2007,06,03,00,38,17.30
2007,06,03,00,39,17.30
2007,06,03,00,40,17.30
2007,06,03,00,41,17.30
2007,06,03,00,42,17.30
2007,06,03,00,43,17.30
2007,06,03,00,44,17.30
2007,06,03,00,45,17.20
2007,06,03,00,46,17.20
2007,06,03,00,47,17.20
2007,06,03,00,48,17.20
2007,06,03,00,49,17.20
2007,06,03,00,50,17.20
2007,06,03,00,51,17.20
2007,06,03,00,52,17.10
2007,06,03,00,53,17.10
2007,06,03,00,54,17.10
2007,06,03,00,55,17.10
2007,06,03,00,56,17.00
2007,06,03,00,57,17.00
2007,06,03,00,58,16.90
2007,06,03,00,59,16.90
2007,06,03,01,00,16.90
2007,06,03,01,01,16.90
2007,06,03,01,02,16.90
2007,06,03,01,03,16.80
2007,06,03,01,04,16.80
2007,06,03,01,05,16.80
2007,06,03,01,06,16.80
2007,06,03,01,07,16.70
2007,06,03,01,08,16.70
2007,06,03,01,09,16.60
2007,06,03,01,10,16.60
2007,06,03,01,11,16.50
2007,06,03,01,12,16.40
2007,06,03,01,13,16.30
2007,06,03,01,14,16.20
2007,06,03,01,15,16.10
2007,06,03,01,16,16.00
2007,06,03,01,17,15.90
2007,06,03,01,18,15.90
2007,06,03,01,19,15.90
2007,06,03,01,20,15.80
2007,06,03,01,21,15.70
2007,06,03,01,22,15.70
2007,06,03,01,23,15.70
2007,06,03,01,24,15.60
2007,06,03,01,25,15.60
2007,06,03,01,26,15.60
2007,06,03,01,27,15.60
2007,06,03,01,28,15.50
2007,06,03,01,29,15.50
2007,06,03,01,30,15.50
2007,06,03,01,31,15.50
2007,06,03,01,32,15.50
2007,06,03,01,33,15.50
2007,06,03,01,34,15.50
2007,06,03,01,35,15.50
2007,06,03,01,36,15.50
2007,06,03,01,37,15.60
2007,06,03,01,38,15.60
2007,06,03,01,39,15.70
2007,06,03,01,40,15.80
2007,06,03,01,41,15.80
2007,06,03,01,42,15.90
2007,06,03,01,43,16.00
2007,06,03,01,44,16.00
2007,06,03,01,45,16.10
2007,06,03,01,46,16.10
2007,06,03,01,47,16.20
2007,06,03,01,48,16.20
2007,06,03,01,49,16.20
2007,06,03,01,50,16.10
2007,06,03,01,51,16.10
2007,06,03,01,52,16.10
2007,06,03,01,53,16.10
2007,06,03,01,54,16.00
2007,06,03,01,55,15.90
2007,06,03,01,56,15.90
2007,06,03,01,57,15.80
2007,06,03,01,58,15.80
2007,06,03,01,59,15.70
2007,06,03,02,00,15.70
2007,06,03,02,01,15.60
2007,06,03,02,02,15.60
2007,06,03,02,03,15.50
2007,06,03,02,04,15.50
2007,06,03,02,05,15.40
2007,06,03,02,06,15.40
2007,06,03,02,07,15.30
2007,06,03,02,08,15.30
2007,06,03,02,09,15.20
2007,06,03,02,10,15.20
2007,06,03,02,11,15.20
2007,06,03,02,12,15.20
2007,06,03,02,13,15.20
2007,06,03,02,14,15.20
2007,06,03,02,15,15.20
2007,06,03,02,16,15.20
2007,06,03,02,17,15.30
2007,06,03,02,18,15.30
2007,06,03,02,19,15.30
2007,06,03,02,20,15.30
2007,06,03,02,21,15.30
2007,06,03,02,22,15.40
2007,06,03,02,23,15.40
2007,06,03,02,24,15.40
2007,06,03,02,25,15.40
2007,06,03,02,26,15.40
2007,06,03,02,27,15.40
2007,06,03,02,28,15.40
2007,06,03,02,29,15.50
2007,06,03,02,30,15.50
2007,06,03,02,31,15.50
2007,06,03,02,32,15.50
2007,06,03,02,33,15.50
2007,06,03,02,34,15.60
2007,06,03,02,35,15.60
2007,06,03,02,36,15.60
2007,06,03,02,37,15.60
2007,06,03,02,38,15.50
2007,06,03,02,39,15.60
2007,06,03,02,40,15.50
2007,06,03,02,41,15.60
2007,06,03,02,42,15.60
2007,06,03,02,43,15.50
2007,06,03,02,44,15.50
2007,06,03,02,45,15.40
2007,06,03,02,46,15.40
2007,06,03,02,47,15.30
2007,06,03,02,48,15.30
2007,06,03,02,49,15.30
2007,06,03,02,50,15.30
2007,06,03,02,51,15.30
2007,06,03,02,52,15.30
2007,06,03,02,53,15.30
2007,06,03,02,54,15.30
2007,06,03,02,55,15.30
2007,06,03,02,56,15.30
2007,06,03,02,57,15.30
2007,06,03,02,58,15.30
2007,06,03,02,59,15.30
2007,06,03,03,00,15.30
2007,06,03,03,01,15.30
2007,06,03,03,02,15.30
2007,06,03,03,03,15.30
2007,06,03,03,04,15.30
2007,06,03,03,05,15.30
2007,06,03,03,06,15.30
2007,06,03,03,07,15.20
2007,06,03,03,08,15.20
2007,06,03,03,09,15.20
2007,06,03,03,10,15.20
2007,06,03,03,11,15.20
2007,06,03,03,12,15.20
2007,06,03,03,13,15.20
2007,06,03,03,14,15.20
2007,06,03,03,15,15.20
2007,06,03,03,16,15.20
2007,06,03,03,17,15.30
2007,06,03,03,18,15.30
2007,06,03,03,19,15.30
2007,06,03,03,20,15.30
2007,06,03,03,21,15.30
2007,06,03,03,22,15.30
2007,06,03,03,23,15.20
2007,06,03,03,24,15.20
2007,06,03,03,25,15.10
2007,06,03,03,26,15.00
2007,06,03,03,27,15.00
2007,06,03,03,28,15.00
2007,06,03,03,29,15.00
2007,06,03,03,30,15.00
2007,06,03,03,31,14.90
2007,06,03,03,32,14.90
2007,06,03,03,33,14.80
2007,06,03,03,34,14.80
2007,06,03,03,35,14.70
2007,06,03,03,36,14.70
2007,06,03,03,37,14.70
2007,06,03,03,38,14.60
2007,06,03,03,39,14.60
2007,06,03,03,40,14.50
2007,06,03,03,41,14.40
2007,06,03,03,42,14.40
2007,06,03,03,43,14.30
2007,06,03,03,44,14.30
2007,06,03,03,45,14.20
2007,06,03,03,46,14.20
2007,06,03,03,47,14.20
2007,06,03,03,48,14.20
2007,06,03,03,49,14.20
2007,06,03,03,50,14.20
2007,06,03,03,51,14.30
2007,06,03,03,52,14.30
2007,06,03,03,53,14.30
2007,06,03,03,54,14.40
2007,06,03,03,55,14.40
2007,06,03,03,56,14.40
2007,06,03,03,57,14.40
2007,06,03,03,58,14.40
2007,06,03,03,59,14.40
2007,06,03,04,00,14.40
2007,06,03,04,01,14.40
2007,06,03,04,02,14.40
2007,06,03,04,03,14.40
2007,06,03,04,04,14.40
2007,06,03,04,05,14.40
2007,06,03,04,06,14.40
2007,06,03,04,07,14.40
2007,06,03,04,08,14.40
2007,06,03,04,09,14.40
2007,06,03,04,10,14.40
2007,06,03,04,11,14.40
2007,06,03,04,12,14.40
2007,06,03,04,13,14.50
2007,06,03,04,14,14.50
2007,06,03,04,15,14.50
2007,06,03,04,16,14.60
2007,06,03,04,17,14.60
2007,06,03,04,18,14.60
2007,06,03,04,19,14.60
2007,06,03,04,20,14.60
2007,06,03,04,21,14.60
2007,06,03,04,22,14.70
2007,06,03,04,23,14.70
2007,06,03,04,24,14.70
2007,06,03,04,25,14.70
2007,06,03,04,26,14.80
2007,06,03,04,27,14.70
2007,06,03,04,28,14.70
2007,06,03,04,29,14.70
2007,06,03,04,30,14.70
2007,06,03,04,31,14.70
2007,06,03,04,32,14.60
2007,06,03,04,33,14.60
2007,06,03,04,34,14.50
2007,06,03,04,35,14.50
2007,06,03,04,36,14.50
2007,06,03,04,37,14.50
2007,06,03,04,38,14.50
2007,06,03,04,39,14.50
2007,06,03,04,40,14.50
2007,06,03,04,41,14.60
2007,06,03,04,42,14.60
2007,06,03,04,43,14.70
2007,06,03,04,44,14.70
2007,06,03,04,45,14.80
2007,06,03,04,46,14.80
2007,06,03,04,47,14.80
2007,06,03,04,48,14.90
2007,06,03,04,49,15.00
2007,06,03,04,50,15.00
2007,06,03,04,51,15.00
2007,06,03,04,52,15.00
2007,06,03,04,53,15.00
2007,06,03,04,54,15.00
2007,06,03,04,55,15.00
2007,06,03,04,56,15.00
2007,06,03,04,57,15.00
2007,06,03,04,58,15.00
2007,06,03,04,59,15.00
2007,06,03,05,00,15.00
2007,06,03,05,01,15.00
2007,06,03,05,02,15.00
2007,06,03,05,03,15.00
2007,06,03,05,04,15.00
2007,06,03,05,05,15.00
2007,06,03,05,06,15.00
2007,06,03,05,07,15.00
2007,06,03,05,08,15.00
2007,06,03,05,09,14.90
2007,06,03,05,10,15.00
2007,06,03,05,11,15.00
2007,06,03,05,12,15.00
2007,06,03,05,13,14.90
2007,06,03,05,14,14.90
2007,06,03,05,15,14.90
2007,06,03,05,16,14.90
2007,06,03,05,17,14.90
2007,06,03,05,18,14.90
2007,06,03,05,19,14.90
2007,06,03,05,20,14.90
2007,06,03,05,21,14.90
2007,06,03,05,22,14.90
2007,06,03,05,23,14.90
2007,06,03,05,24,14.90
2007,06,03,05,25,15.00
2007,06,03,05,26,15.00
2007,06,03,05,27,15.00
2007,06,03,05,28,15.00
2007,06,03,05,29,15.00
2007,06,03,05,30,15.00
2007,06,03,05,31,15.00
2007,06,03,05,32,15.00
2007,06,03,05,33,15.00
2007,06,03,05,34,15.00
2007,06,03,05,35,15.00
2007,06,03,05,36,15.00
2007,06,03,05,37,15.00
2007,06,03,05,38,15.00
2007,06,03,05,39,15.00
2007,06,03,05,40,15.00
2007,06,03,05,41,15.00
2007,06,03,05,42,15.00
2007,06,03,05,43,15.00
2007,06,03,05,44,14.90
2007,06,03,05,45,14.90
2007,06,03,05,46,14.80
2007,06,03,05,47,14.80
2007,06,03,05,48,14.80
2007,06,03,05,49,14.70
2007,06,03,05,50,14.70
2007,06,03,05,51,14.70
2007,06,03,05,52,14.70
2007,06,03,05,53,14.70
2007,06,03,05,54,14.60
2007,06,03,05,55,14.60
2007,06,03,05,56,14.60
2007,06,03,05,57,14.60
2007,06,03,05,58,14.60
2007,06,03,05,59,14.60
2007,06,03,06,00,14.60
2007,06,03,06,01,14.60
2007,06,03,06,02,14.60
2007,06,03,06,03,14.60
2007,06,03,06,04,14.60
2007,06,03,06,05,14.60
2007,06,03,06,06,14.60
2007,06,03,06,07,14.60
2007,06,03,06,08,14.60
2007,06,03,06,09,14.60
2007,06,03,06,10,14.60
2007,06,03,06,11,14.70
2007,06,03,06,12,14.70
2007,06,03,06,13,14.70
2007,06,03,06,14,14.70
2007,06,03,06,15,14.80
2007,06,03,06,16,14.80
2007,06,03,06,17,14.90
2007,06,03,06,18,15.00
2007,06,03,06,19,15.00
2007,06,03,06,20,15.00
2007,06,03,06,21,15.00
2007,06,03,06,22,15.00
2007,06,03,06,23,15.00
2007,06,03,06,24,15.00
2007,06,03,06,25,15.00
2007,06,03,06,26,15.00
2007,06,03,06,27,15.00
2007,06,03,06,28,15.00
2007,06,03,06,29,15.00
2007,06,03,06,30,15.00
2007,06,03,06,31,15.00
2007,06,03,06,32,15.00
2007,06,03,06,33,15.00
2007,06,03,06,34,15.10
2007,06,03,06,35,15.10
2007,06,03,06,36,15.10
2007,06,03,06,37,15.20
2007,06,03,06,38,15.20
2007,06,03,06,39,15.20
2007,06,03,06,40,15.20
2007,06,03,06,41,15.20
2007,06,03,06,42,15.20
2007,06,03,06,43,15.20
2007,06,03,06,44,15.20
2007,06,03,06,45,15.20
2007,06,03,06,46,15.20
2007,06,03,06,47,15.20
2007,06,03,06,48,15.20
2007,06,03,06,49,15.30
2007,06,03,06,50,15.30
2007,06,03,06,51,15.30
2007,06,03,06,52,15.30
2007,06,03,06,53,15.30
2007,06,03,06,54,15.30
2007,06,03,06,55,15.40
2007,06,03,06,56,15.40
2007,06,03,06,57,15.50
2007,06,03,06,58,15.50
2007,06,03,06,59,15.60
2007,06,03,07,00,15.60
2007,06,03,07,01,15.60
2007,06,03,07,02,15.70
2007,06,03,07,03,15.70
2007,06,03,07,04,15.80
2007,06,03,07,05,15.80
2007,06,03,07,06,15.90
2007,06,03,07,07,15.90
2007,06,03,07,08,15.90
2007,06,03,07,09,16.00
2007,06,03,07,10,16.10
2007,06,03,07,11,16.10
2007,06,03,07,12,16.20
2007,06,03,07,13,16.30
2007,06,03,07,14,16.40
2007,06,03,07,15,16.40
2007,06,03,07,16,16.50
2007,06,03,07,17,16.50
2007,06,03,07,18,16.60
2007,06,03,07,19,16.60
2007,06,03,07,20,16.70
2007,06,03,07,21,16.70
2007,06,03,07,22,16.80
2007,06,03,07,23,16.80
2007,06,03,07,24,16.90
2007,06,03,07,25,17.00
2007,06,03,07,26,17.10
2007,06,03,07,27,17.20
2007,06,03,07,28,17.30
2007,06,03,07,29,17.40
2007,06,03,07,30,17.60
2007,06,03,07,31,17.70
2007,06,03,07,32,17.90
2007,06,03,07,33,18.00
2007,06,03,07,34,18.00
2007,06,03,07,35,18.10
2007,06,03,07,36,18.20
2007,06,03,07,37,18.20
2007,06,03,07,38,18.30
2007,06,03,07,39,18.40
2007,06,03,07,40,18.40
2007,06,03,07,41,18.40
2007,06,03,07,42,18.50
2007,06,03,07,43,18.60
2007,06,03,07,44,18.60
2007,06,03,07,45,18.60
2007,06,03,07,46,18.70
2007,06,03,07,47,18.70
2007,06,03,07,48,18.70
2007,06,03,07,49,18.80
2007,06,03,07,50,18.80
2007,06,03,07,51,18.80
2007,06,03,07,52,18.80
2007,06,03,07,53,18.70
2007,06,03,07,54,18.70
2007,06,03,07,55,18.70
2007,06,03,07,56,18.70
2007,06,03,07,57,18.70
2007,06,03,07,58,18.50
2007,06,03,07,59,18.40
2007,06,03,08,00,18.40
2007,06,03,08,01,18.30
2007,06,03,08,02,18.30
2007,06,03,08,03,18.30
2007,06,03,08,04,18.30
2007,06,03,08,05,18.30
2007,06,03,08,06,18.30
2007,06,03,08,07,18.30
2007,06,03,08,08,18.30
2007,06,03,08,09,18.40
2007,06,03,08,10,18.40
2007,06,03,08,11,18.40
2007,06,03,08,12,18.50
2007,06,03,08,13,18.50
2007,06,03,08,14,18.60
2007,06,03,08,15,18.60
2007,06,03,08,16,18.70
2007,06,03,08,17,18.70
2007,06,03,08,18,18.70
2007,06,03,08,19,18.70
2007,06,03,08,20,18.80
2007,06,03,08,21,18.80
2007,06,03,08,22,18.70
2007,06,03,08,23,18.70
2007,06,03,08,24,18.70
2007,06,03,08,25,18.70
2007,06,03,08,26,18.70
2007,06,03,08,27,18.70
2007,06,03,08,28,18.70
2007,06,03,08,29,18.70
2007,06,03,08,30,18.70
2007,06,03,08,31,18.70
2007,06,03,08,32,18.60
2007,06,03,08,33,18.60
2007,06,03,08,34,18.60
2007,06,03,08,35,18.70
2007,06,03,08,36,18.70
2007,06,03,08,37,18.70
2007,06,03,08,38,18.70
2007,06,03,08,39,18.70
2007,06,03,08,40,18.70
2007,06,03,08,41,18.70
2007,06,03,08,42,18.70
2007,06,03,08,43,18.80
2007,06,03,08,44,18.80
2007,06,03,08,45,18.80
2007,06,03,08,46,18.80
2007,06,03,08,47,18.80
2007,06,03,08,48,18.90
2007,06,03,08,49,18.90
2007,06,03,08,50,18.90
2007,06,03,08,51,18.90
2007,06,03,08,52,18.80
2007,06,03,08,53,18.70
2007,06,03,08,54,18.60
2007,06,03,08,55,18.50
2007,06,03,08,56,18.40
2007,06,03,08,57,18.40
2007,06,03,08,58,18.40
2007,06,03,08,59,18.40
2007,06,03,09,00,18.40
2007,06,03,09,01,18.40
2007,06,03,09,02,18.50
2007,06,03,09,03,18.60
2007,06,03,09,04,18.60
2007,06,03,09,05,18.70
2007,06,03,09,06,18.80
2007,06,03,09,07,18.80
2007,06,03,09,08,18.90
2007,06,03,09,09,18.90
2007,06,03,09,10,18.90
2007,06,03,09,11,18.90
2007,06,03,09,12,18.80
2007,06,03,09,13,18.70
2007,06,03,09,14,18.60
2007,06,03,09,15,18.40
2007,06,03,09,16,18.30
2007,06,03,09,17,18.20
2007,06,03,09,18,18.10
2007,06,03,09,19,18.20
2007,06,03,09,20,18.20
2007,06,03,09,21,18.30
2007,06,03,09,22,18.50
2007,06,03,09,23,18.60
2007,06,03,09,24,18.80
2007,06,03,09,25,18.90
2007,06,03,09,26,19.10
2007,06,03,09,27,19.20
2007,06,03,09,28,19.30
2007,06,03,09,29,19.40
2007,06,03,09,30,19.50
2007,06,03,09,31,19.60
2007,06,03,09,32,19.70
2007,06,03,09,33,19.70
2007,06,03,09,34,19.90
2007,06,03,09,35,20.00
2007,06,03,09,36,20.00
2007,06,03,09,37,20.10
2007,06,03,09,38,20.10
2007,06,03,09,39,20.10
2007,06,03,09,40,20.00
2007,06,03,09,41,19.90
2007,06,03,09,42,19.80
2007,06,03,09,43,19.70
2007,06,03,09,44,19.70
2007,06,03,09,45,19.70
2007,06,03,09,46,19.80
2007,06,03,09,47,19.80
2007,06,03,09,48,19.80
2007,06,03,09,49,19.80
2007,06,03,09,50,19.90
2007,06,03,09,51,19.90
2007,06,03,09,52,19.90
2007,06,03,09,53,20.00
2007,06,03,09,54,20.10
2007,06,03,09,55,20.20
2007,06,03,09,56,20.20
2007,06,03,09,57,20.30
2007,06,03,09,58,20.30
2007,06,03,09,59,20.40
2007,06,03,10,00,20.40
2007,06,03,10,01,20.30
2007,06,03,10,02,20.20
2007,06,03,10,03,20.00
2007,06,03,10,04,19.90
2007,06,03,10,05,19.90
2007,06,03,10,06,19.90
2007,06,03,10,07,19.90
2007,06,03,10,08,19.90
2007,06,03,10,09,19.90
2007,06,03,10,10,19.90
2007,06,03,10,11,19.90
2007,06,03,10,12,19.90
2007,06,03,10,13,20.00
2007,06,03,10,14,20.10
2007,06,03,10,15,20.10
2007,06,03,10,16,20.10
2007,06,03,10,17,20.10
2007,06,03,10,18,20.10
2007,06,03,10,19,20.10
2007,06,03,10,20,20.20
2007,06,03,10,21,20.20
2007,06,03,10,22,20.10
2007,06,03,10,23,20.00
2007,06,03,10,24,20.00
2007,06,03,10,25,19.80
2007,06,03,10,26,19.70
2007,06,03,10,27,19.60
2007,06,03,10,28,19.50
2007,06,03,10,29,19.50
2007,06,03,10,30,19.60
2007,06,03,10,31,19.70
2007,06,03,10,32,19.80
2007,06,03,10,33,19.90
2007,06,03,10,34,20.00
2007,06,03,10,35,20.10
2007,06,03,10,36,20.10
2007,06,03,10,37,20.20
2007,06,03,10,38,20.20
2007,06,03,10,39,20.20
2007,06,03,10,40,20.20
2007,06,03,10,41,20.20
2007,06,03,10,42,20.10
2007,06,03,10,43,20.10
2007,06,03,10,44,20.10
2007,06,03,10,45,20.10
2007,06,03,10,46,20.10
2007,06,03,10,47,20.10
2007,06,03,10,48,20.20
2007,06,03,10,49,20.20
2007,06,03,10,50,20.20
2007,06,03,10,51,20.10
2007,06,03,10,52,20.10
2007,06,03,10,53,20.10
2007,06,03,10,54,20.10
2007,06,03,10,55,20.10
2007,06,03,10,56,20.20
2007,06,03,10,57,20.20
2007,06,03,10,58,20.20
2007,06,03,10,59,20.30
2007,06,03,11,00,20.30
2007,06,03,11,01,20.40
2007,06,03,11,02,20.40
2007,06,03,11,03,20.40
2007,06,03,11,04,20.40
2007,06,03,11,05,20.30
2007,06,03,11,06,20.30
2007,06,03,11,07,20.30
2007,06,03,11,08,20.30
2007,06,03,11,09,20.40
2007,06,03,11,10,20.40
2007,06,03,11,11,20.40
2007,06,03,11,12,20.40
2007,06,03,11,13,20.40
2007,06,03,11,14,20.40
2007,06,03,11,15,20.40
2007,06,03,11,16,20.40
2007,06,03,11,17,20.40
2007,06,03,11,18,20.40
2007,06,03,11,19,20.50
2007,06,03,11,20,20.60
2007,06,03,11,21,20.70
2007,06,03,11,22,20.80
2007,06,03,11,23,20.80
2007,06,03,11,24,20.90
2007,06,03,11,25,20.90
2007,06,03,11,26,21.00
2007,06,03,11,27,20.90
2007,06,03,11,28,20.90
2007,06,03,11,29,21.00
2007,06,03,11,30,21.10
2007,06,03,11,31,21.10
2007,06,03,11,32,21.20
2007,06,03,11,33,21.10
2007,06,03,11,34,21.00
2007,06,03,11,35,21.00
2007,06,03,11,36,21.00
2007,06,03,11,37,21.00
2007,06,03,11,38,21.00
2007,06,03,11,39,21.10
2007,06,03,11,40,21.10
2007,06,03,11,41,21.10
2007,06,03,11,42,21.10
2007,06,03,11,43,21.20
2007,06,03,11,44,21.20
2007,06,03,11,45,21.30
2007,06,03,11,46,21.40
2007,06,03,11,47,21.50
2007,06,03,11,48,21.60
2007,06,03,11,49,21.70
2007,06,03,11,50,21.70
2007,06,03,11,51,21.70
2007,06,03,11,52,21.70
2007,06,03,11,53,21.80
2007,06,03,11,54,21.80
2007,06,03,11,55,21.80
2007,06,03,11,56,21.80
2007,06,03,11,57,21.90
2007,06,03,11,58,21.90
2007,06,03,11,59,21.90
2007,06,03,12,00,21.80
2007,06,03,12,01,21.80
2007,06,03,12,02,21.70
2007,06,03,12,03,21.70
2007,06,03,12,04,21.60
2007,06,03,12,05,21.50
2007,06,03,12,06,21.50
2007,06,03,12,07,21.40
2007,06,03,12,08,21.30
2007,06,03,12,09,21.00
2007,06,03,12,10,20.80
2007,06,03,12,11,20.70
2007,06,03,12,12,20.60
2007,06,03,12,13,20.60
2007,06,03,12,14,20.60
2007,06,03,12,15,20.60
2007,06,03,12,16,20.70
2007,06,03,12,17,20.70
2007,06,03,12,18,20.70
2007,06,03,12,19,20.60
2007,06,03,12,20,20.60
2007,06,03,12,21,20.50
2007,06,03,12,22,20.50
2007,06,03,12,23,20.50
2007,06,03,12,24,20.50
2007,06,03,12,25,20.60
2007,06,03,12,26,20.50
2007,06,03,12,27,20.50
2007,06,03,12,28,20.40
2007,06,03,12,29,20.30
2007,06,03,12,30,20.30
2007,06,03,12,31,20.40
2007,06,03,12,32,20.40
2007,06,03,12,33,20.50
2007,06,03,12,34,20.70
2007,06,03,12,35,20.80
2007,06,03,12,36,20.90
2007,06,03,12,37,21.00
2007,06,03,12,38,21.10
2007,06,03,12,39,21.20
2007,06,03,12,40,21.40
2007,06,03,12,41,21.50
2007,06,03,12,42,21.70
2007,06,03,12,43,21.80
2007,06,03,12,44,21.80
2007,06,03,12,45,21.90
2007,06,03,12,46,22.00
2007,06,03,12,47,22.10
2007,06,03,12,48,22.20
2007,06,03,12,49,22.20
2007,06,03,12,50,22.20
2007,06,03,12,51,22.30
2007,06,03,12,52,22.20
2007,06,03,12,53,22.10
2007,06,03,12,54,22.00
2007,06,03,12,55,21.90
2007,06,03,12,56,21.80
2007,06,03,12,57,21.70
2007,06,03,12,58,21.70
2007,06,03,12,59,21.70
2007,06,03,13,00,21.80
2007,06,03,13,01,21.90
2007,06,03,13,02,22.10
2007,06,03,13,03,22.20
2007,06,03,13,04,22.20
2007,06,03,13,05,22.30
2007,06,03,13,06,22.30
2007,06,03,13,07,22.30
2007,06,03,13,08,22.20
2007,06,03,13,09,22.00
2007,06,03,13,10,21.90
2007,06,03,13,11,21.80
2007,06,03,13,12,21.70
2007,06,03,13,13,21.60
2007,06,03,13,14,21.60
2007,06,03,13,15,21.60
2007,06,03,13,16,21.60
2007,06,03,13,17,21.50
2007,06,03,13,18,21.60
2007,06,03,13,19,21.60
2007,06,03,13,20,21.60
2007,06,03,13,21,21.50
2007,06,03,13,22,21.40
2007,06,03,13,23,21.50
2007,06,03,13,24,21.50
2007,06,03,13,25,21.60
2007,06,03,13,26,21.60
2007,06,03,13,27,21.60
2007,06,03,13,28,21.70
2007,06,03,13,29,21.80
2007,06,03,13,30,21.80
2007,06,03,13,31,21.80
2007,06,03,13,32,21.80
2007,06,03,13,33,21.60
2007,06,03,13,34,21.50
2007,06,03,13,35,21.30
2007,06,03,13,36,21.10
2007,06,03,13,37,21.10
2007,06,03,13,38,21.00
2007,06,03,13,39,20.90
2007,06,03,13,40,20.90
2007,06,03,13,41,21.00
2007,06,03,13,42,21.00
2007,06,03,13,43,21.10
2007,06,03,13,44,21.20
2007,06,03,13,45,21.20
2007,06,03,13,46,21.20
2007,06,03,13,47,21.20
2007,06,03,13,48,21.20
2007,06,03,13,49,21.20
2007,06,03,13,50,21.20
2007,06,03,13,51,21.20
2007,06,03,13,52,21.30
2007,06,03,13,53,21.30
2007,06,03,13,54,21.40
2007,06,03,13,55,21.50
2007,06,03,13,56,21.60
2007,06,03,13,57,21.70
2007,06,03,13,58,21.80
2007,06,03,13,59,21.80
2007,06,03,14,00,21.80
2007,06,03,14,01,21.90
2007,06,03,14,02,21.90
2007,06,03,14,03,21.90
2007,06,03,14,04,22.00
2007,06,03,14,05,22.00
2007,06,03,14,06,22.10
2007,06,03,14,07,22.10
2007,06,03,14,08,22.20
2007,06,03,14,09,22.20
2007,06,03,14,10,22.30
2007,06,03,14,11,22.40
2007,06,03,14,12,22.40
2007,06,03,14,13,22.40
2007,06,03,14,14,22.40
2007,06,03,14,15,22.50
2007,06,03,14,16,22.50
2007,06,03,14,17,22.60
2007,06,03,14,18,22.60
2007,06,03,14,19,22.60
2007,06,03,14,20,22.70
2007,06,03,14,21,22.80
2007,06,03,14,22,22.90
2007,06,03,14,23,23.10
2007,06,03,14,24,23.30
2007,06,03,14,25,23.50
2007,06,03,14,26,23.60
2007,06,03,14,27,23.70
2007,06,03,14,28,23.80
2007,06,03,14,29,24.00
2007,06,03,14,30,24.10
2007,06,03,14,31,24.20
2007,06,03,14,32,24.20
2007,06,03,14,33,24.20
2007,06,03,14,34,24.10
2007,06,03,14,35,24.10
2007,06,03,14,36,24.20
2007,06,03,14,37,24.20
2007,06,03,14,38,24.20
2007,06,03,14,39,24.10
2007,06,03,14,40,24.00
2007,06,03,14,41,24.00
2007,06,03,14,42,24.00
2007,06,03,14,43,24.00
2007,06,03,14,44,24.00
2007,06,03,14,45,24.00
2007,06,03,14,46,24.00
2007,06,03,14,47,24.10
2007,06,03,14,48,24.10
2007,06,03,14,49,24.20
2007,06,03,14,50,24.20
2007,06,03,14,51,24.20
2007,06,03,14,52,24.30
2007,06,03,14,53,24.50
2007,06,03,14,54,24.60
2007,06,03,14,55,24.80
2007,06,03,14,56,24.90
2007,06,03,14,57,24.90
2007,06,03,14,58,24.80
2007,06,03,14,59,24.60
2007,06,03,15,00,24.40
2007,06,03,15,01,24.30
2007,06,03,15,02,24.10
2007,06,03,15,03,24.00
2007,06,03,15,04,23.90
2007,06,03,15,05,23.90
2007,06,03,15,06,23.90
2007,06,03,15,07,23.90
2007,06,03,15,08,23.90
2007,06,03,15,09,23.90
2007,06,03,15,10,24.00
2007,06,03,15,11,24.00
2007,06,03,15,12,24.10
2007,06,03,15,13,24.20
2007,06,03,15,14,24.10
2007,06,03,15,15,24.10
2007,06,03,15,16,24.10
2007,06,03,15,17,24.10
2007,06,03,15,18,24.20
2007,06,03,15,19,24.20
2007,06,03,15,20,24.30
2007,06,03,15,21,24.30
2007,06,03,15,22,24.30
2007,06,03,15,23,24.30
2007,06,03,15,24,24.20
2007,06,03,15,25,24.20
2007,06,03,15,26,24.10
2007,06,03,15,27,24.00
2007,06,03,15,28,24.00
2007,06,03,15,29,23.90
2007,06,03,15,30,23.90
2007,06,03,15,31,23.90
2007,06,03,15,32,23.90
2007,06,03,15,33,23.80
2007,06,03,15,34,23.80
2007,06,03,15,35,23.70
2007,06,03,15,36,23.60
2007,06,03,15,37,23.50
2007,06,03,15,38,23.50
2007,06,03,15,39,23.50
2007,06,03,15,40,23.60
2007,06,03,15,41,23.80
2007,06,03,15,42,24.00
2007,06,03,15,43,24.10
2007,06,03,15,44,24.10
2007,06,03,15,45,24.20
2007,06,03,15,46,24.30
2007,06,03,15,47,24.50
2007,06,03,15,48,24.70
2007,06,03,15,49,24.70
2007,06,03,15,50,24.80
2007,06,03,15,51,24.80
2007,06,03,15,52,24.90
2007,06,03,15,53,24.90
2007,06,03,15,54,25.00
2007,06,03,15,55,25.10
2007,06,03,15,56,25.30
2007,06,03,15,57,25.50
2007,06,03,15,58,25.70
2007,06,03,15,59,25.90
2007,06,03,16,00,26.10
2007,06,03,16,01,26.20
2007,06,03,16,02,26.30
2007,06,03,16,03,26.50
2007,06,03,16,04,26.60
2007,06,03,16,05,26.60
2007,06,03,16,06,26.70
2007,06,03,16,07,26.60
2007,06,03,16,08,26.40
2007,06,03,16,09,26.20
2007,06,03,16,10,26.10
2007,06,03,16,11,25.90
2007,06,03,16,12,25.80
2007,06,03,16,13,25.60
2007,06,03,16,14,25.60
2007,06,03,16,15,25.60
2007,06,03,16,16,25.60
2007,06,03,16,17,25.50
2007,06,03,16,18,25.40
2007,06,03,16,19,25.40
2007,06,03,16,20,25.30
2007,06,03,16,21,25.20
2007,06,03,16,22,25.10
2007,06,03,16,23,25.10
2007,06,03,16,24,25.00
2007,06,03,16,25,25.00
2007,06,03,16,26,24.90
2007,06,03,16,27,24.90
2007,06,03,16,28,24.90
2007,06,03,16,29,24.90
2007,06,03,16,30,24.90
2007,06,03,16,31,24.80
2007,06,03,16,32,24.80
2007,06,03,16,33,24.70
2007,06,03,16,34,24.70
2007,06,03,16,35,24.70
2007,06,03,16,36,24.70
2007,06,03,16,37,24.70
2007,06,03,16,38,24.80
2007,06,03,16,39,24.80
2007,06,03,16,40,24.80
2007,06,03,16,41,24.80
2007,06,03,16,42,24.70
2007,06,03,16,43,24.70
2007,06,03,16,44,24.70
2007,06,03,16,45,24.70
2007,06,03,16,46,24.80
2007,06,03,16,47,24.80
2007,06,03,16,48,24.80
2007,06,03,16,49,24.90
2007,06,03,16,50,24.80
2007,06,03,16,51,24.80
2007,06,03,16,52,24.70
2007,06,03,16,53,24.70
2007,06,03,16,54,24.60
2007,06,03,16,55,24.60
2007,06,03,16,56,24.60
2007,06,03,16,57,24.60
2007,06,03,16,58,24.60
2007,06,03,16,59,24.60
2007,06,03,17,00,24.60
2007,06,03,17,01,24.60
2007,06,03,17,02,24.60
2007,06,03,17,03,24.70
2007,06,03,17,04,24.80
2007,06,03,17,05,24.90
2007,06,03,17,06,24.90
2007,06,03,17,07,24.80
2007,06,03,17,08,24.70
2007,06,03,17,09,24.60
2007,06,03,17,10,24.50
2007,06,03,17,11,24.50
2007,06,03,17,12,24.50
2007,06,03,17,13,24.50
2007,06,03,17,14,24.50
2007,06,03,17,15,24.50
2007,06,03,17,16,24.40
2007,06,03,17,17,24.40
2007,06,03,17,18,24.40
2007,06,03,17,19,24.40